[[{"header":{"parameterUnit":"m.s-1","parameterCategory":1,"la1":30.2991,"la2":30.254,"lo1":-89.0895,"lo2":-89.0444,"dy":0.0017,"dx":0.0017,"nx":28,"ny":28,"refTime":"2025-02-27T03:00:00:Z","depth":0,"parameterNumber":2,"parameterNumberName":"U-component_of_WINDS"},"data":[0,0,0,0,0,0,0,0,0,0,0,0,0,0,0,0,0,0,0,0,0,0,0,0,0,0,0,0,0,0,0,0,0,0,0,0,0,0,0,0,0,0,0,0,0,0,0,0,0,0,0,0,0,0,0,0,0,0,1.9429,1.943,0,1.9512,1.9513,1.9514,1.9534,1.9534,1.9533,1.9533,1.9614,1.9617,1.9619,0,0,0,0,0,0,0,0,0,0,0,0,0,1.9283,1.9285,1.9429,1.943,1.9431,1.9512,1.9513,1.9514,1.9535,1.9534,1.9533,1.9533,1.9613,1.9616,1.9619,0,0,0,0,0,0,0,0,0,0,0,0,0,1.9354,1.9286,1.9429,1.9451,1.9454,1.9511,1.9513,1.9514,1.9535,1.9534,1.9533,1.9532,1.9612,1.9616,1.962,1.966,0,0,1.9632,1.9634,0,0,0,0,0,0,0,0,1.935,1.9359,1.9447,1.945,1.9453,1.9512,1.9491,1.9563,1.9535,1.9504,1.9533,1.9532,1.958,1.9587,1.9604,1.9664,1.9667,1.9632,1.9635,1.9636,1.9638,0,0,0,0,0,0,0,1.9345,1.9356,1.9462,1.9448,1.9452,1.9455,1.9464,1.9505,1.9545,1.9507,1.9508,1.9518,1.9582,1.96,1.9606,1.9668,1.9632,1.9636,1.9638,1.964,1.9761,1.9762,0,0,0,0,0,0,1.9337,1.9351,1.9459,1.9464,1.9399,1.9458,1.9469,1.9494,1.9545,1.9552,1.9519,1.9519,1.9594,1.9601,1.9609,1.9658,1.9636,1.964,1.9642,1.976,1.9761,1.9762,0,0,0,0,0,0,1.9334,1.9346,1.9456,1.9408,1.9423,1.9462,1.949,1.9496,1.9514,1.9554,1.9561,1.953,1.9594,1.9603,1.9647,1.9661,1.9642,1.9645,1.9759,1.9761,1.9762,1.9756,0,0,0,0,0,0,1.9329,1.9345,1.9362,1.9409,1.9425,1.9494,1.9491,1.9498,1.9521,1.9522,1.9567,1.9573,1.9594,1.9641,1.9651,1.9666,1.9649,1.9758,1.976,1.9762,1.9755,1.9757,1.9758,0,0,0,0,0,1.9324,1.9357,1.9363,1.9376,1.9448,1.9494,1.9504,1.9527,1.9523,1.9539,1.9564,1.9572,1.9657,1.9645,1.9656,1.9673,1.9758,1.976,1.9761,1.9754,1.9756,1.9758,0,0,0,0,0,0,1.9311,1.9364,1.9371,1.942,1.9453,1.9498,1.952,1.9529,1.9563,1.9562,1.9589,1.9599,1.964,1.966,1.9646,1.9712,1.9707,1.9711,1.9698,1.97,1.9702,1.9696,1.9652,0,0,0,0,0,1.9313,1.9349,1.9392,1.9431,1.9447,1.9481,1.9502,1.9517,1.9551,1.9565,1.9594,1.9625,1.9659,1.9681,1.9714,1.9758,1.9766,1.9774,1.9776,1.9777,1.978,1.9802,1.9806,1.9769,1.9769,1.9769,0,0,1.932,1.9353,1.9373,1.943,1.9457,1.949,1.9492,1.9529,1.9553,1.957,1.9613,1.9634,1.9671,1.9714,1.9734,1.9733,1.9792,1.978,1.978,1.9783,1.9805,1.9808,1.9811,1.977,1.977,1.977,0,0,1.9348,1.9378,1.9413,1.9439,1.948,1.9501,1.9509,1.9553,1.9568,1.9611,1.9624,1.9652,1.9711,1.9736,1.9756,1.979,1.9798,1.98,1.9809,1.983,1.9833,1.9836,1.9846,1.985,1.9803,1.9803,1.9803,0,1.935,1.9404,1.9429,1.9464,1.9487,1.9504,1.9538,1.9563,1.9612,1.9626,1.9624,1.9695,1.9722,1.9769,1.9777,1.9794,1.9802,1.9796,1.9831,1.9834,1.9837,1.9847,1.9851,1.9803,1.9803,1.9803,1.9803,0,1.9403,1.944,1.9463,1.951,1.9536,1.957,1.9598,1.9621,1.9633,1.9653,1.9695,1.9727,1.9766,1.9778,1.979,1.9827,1.9824,1.9826,1.9821,1.984,1.985,1.9854,1.9803,1.9803,1.9803,1.9803,0,0,1.9428,1.9487,1.9495,1.9516,1.9561,1.9588,1.9622,1.9661,1.9678,1.9711,1.9738,1.9786,1.9787,1.981,1.9824,1.9843,1.9866,1.9842,1.9843,1.9844,1.9905,1.9903,1.9908,1.9871,1.9872,1.9872,1.9902,0,1.9461,1.9524,1.9546,1.9597,1.9629,1.9644,1.9673,1.9702,1.9722,1.975,1.9771,1.9804,1.9804,1.9817,1.9836,1.9859,1.9878,1.9857,1.9895,1.9896,1.9885,1.9913,1.9912,1.9939,1.9906,1.9907,1.9907,0,1.9509,1.9542,1.9596,1.9635,1.9649,1.9675,1.9711,1.9739,1.9771,1.9784,1.9808,1.9821,1.9854,1.9846,1.9891,1.9876,1.9892,1.9905,1.9907,1.9911,1.9903,1.9917,1.9948,1.9951,1.9914,1.9913,1.9913,0,1.952,1.9578,1.9617,1.9634,1.9681,1.9698,1.9718,1.975,1.9771,1.9801,1.9814,1.9848,1.9866,1.9891,1.9911,1.9904,1.9953,1.9948,1.9963,1.9962,1.9973,1.9972,2.0005,1.9984,1.9984,1.9984,1.9984,0,1.9554,1.9587,1.9622,1.9647,1.9682,1.9706,1.9739,1.976,1.9787,1.9814,1.9828,1.9852,1.9878,1.9905,1.9921,1.9954,1.9962,1.9972,1.9976,1.9971,1.9969,1.9982,1.998,1.9985,1.9985,1.9984,1.9984,0,1.9573,1.9598,1.9642,1.9682,1.9692,1.9716,1.9749,1.9772,1.9791,1.9824,1.9833,1.9863,1.9895,1.9918,1.9959,1.9969,2.0005,2.0009,1.9994,1.9996,2.0009,2.0007,2.0052,2.0058,2.0033,2.0033,2.0033,0,1.9593,1.9618,1.966,1.968,1.97,1.9731,1.9752,1.9775,1.9796,1.9833,1.985,1.9884,1.9912,1.9961,1.9985,2.0016,2.002,2.0034,2.0025,2.0018,2.0019,2.0017,2.0019,2.0035,2.0035,2.0035,2.0035,0,1.9626,1.9637,1.9668,1.9703,1.9728,1.9756,1.9784,1.9798,1.9826,1.9848,1.9881,1.9903,1.9944,1.9976,2.0009,2.0027,2.0035,2.0038,2.0042,2.0038,2.0028,2.0032,1.9997,2.0037,2.0037,2.0036,2.0036,2.0036,1.9646,1.9668,1.97,1.9734,1.9757,1.9782,1.9805,1.9826,1.9855,1.9891,1.9902,1.9936,1.9965,2.0009,2.0028,2.0053,2.0052,2.0059,2.0061,2.0063,2.0062,2.0024,2.0059,2.0059,2.0059,2.0059,2.0059,0,1.9679,1.97,1.973,1.9769,1.9794,1.98,1.983,1.9851,1.9881,1.9907,1.9934,1.9971,2.0001,2.0026,2.0057,2.0072,2.0076,2.0079,2.0078,2.0082,2.0061,2.0054,2.0075,2.0075,2.0075,2.0075,2.0075,2.0075,1.9699,1.9736,1.975,1.9798,1.9818,1.9852,1.9869,1.9891,1.9912,1.9953,1.9978,1.9995,2.002,2.0052,2.0079,2.0086,2.0096,2.0098,2.0105,2.0085,2.0084,2.0082,2.0075,2.01,2.01,2.0123,2.0123,2.0124]},{"header":{"parameterUnit":"m.s-1","parameterCategory":1,"la1":30.2991,"la2":30.254,"lo1":-89.0895,"lo2":-89.0444,"dy":0.0017,"dx":0.0017,"nx":28,"ny":28,"refTime":"2025-02-27T03:00:00:Z","depth":0,"parameterNumber":3,"parameterNumberName":"V-component_of_WINDS"},"data":[0,0,0,0,0,0,0,0,0,0,0,0,0,0,0,0,0,0,0,0,0,0,0,0,0,0,0,0,0,0,0,0,0,0,0,0,0,0,0,0,0,0,0,0,0,0,0,0,0,0,0,0,0,0,0,0,0,0,0.0258,0.0257,0,0.0126,0.0124,0.0123,0.0062,0.0062,0.0062,0.0062,-0.0079,-0.0082,-0.0086,0,0,0,0,0,0,0,0,0,0,0,0,0,0.045,0.0447,0.0258,0.0256,0.0255,0.0126,0.0124,0.0122,0.0062,0.0062,0.0062,0.0062,-0.0077,-0.0082,-0.0087,0,0,0,0,0,0,0,0,0,0,0,0,0,0.0347,0.0446,0.0258,0.0209,0.0204,0.0126,0.0124,0.0122,0.0062,0.0062,0.0062,0.0063,-0.0076,-0.0081,-0.0087,-0.0127,0,0,-0.0105,-0.0107,0,0,0,0,0,0,0,0,0.0353,0.034,0.0218,0.0213,0.0206,0.0111,0.014,0.0038,0.0062,0.0116,0.0062,0.0063,-0.0016,-0.0027,-0.0052,-0.0134,-0.014,-0.0105,-0.0109,-0.0112,-0.0113,0,0,0,0,0,0,0,0.0361,0.0346,0.0205,0.0216,0.0209,0.0191,0.0177,0.0121,0.005,0.0111,0.0106,0.0092,-0.0019,-0.0046,-0.0056,-0.0142,-0.0105,-0.011,-0.0114,-0.0116,-0.0267,-0.0268,0,0,0,0,0,0,0.0377,0.0352,0.021,0.0202,0.0282,0.0188,0.0172,0.0141,0.005,0.0037,0.0092,0.0089,-0.0037,-0.0049,-0.0061,-0.0116,-0.0111,-0.0117,-0.012,-0.0267,-0.0267,-0.0268,0,0,0,0,0,0,0.0381,0.0365,0.0215,0.0275,0.0255,0.0184,0.015,0.0138,0.0111,0.0036,0.0022,0.0078,-0.0037,-0.0053,-0.0111,-0.0122,-0.012,-0.0125,-0.0266,-0.0267,-0.0267,-0.0224,0,0,0,0,0,0,0.0387,0.0367,0.0353,0.0276,0.0252,0.017,0.015,0.0136,0.0102,0.0098,0.0019,0.0006,-0.0038,-0.0102,-0.0117,-0.013,-0.0129,-0.0265,-0.0266,-0.0267,-0.0225,-0.0224,-0.0222,0,0,0,0,0,0.0394,0.037,0.0352,0.0336,0.0234,0.017,0.0156,0.0107,0.0102,0.0085,0.0036,0.0009,-0.0118,-0.0107,-0.0124,-0.0139,-0.0265,-0.0266,-0.0267,-0.0226,-0.0224,-0.0222,0,0,0,0,0,0,0.0446,0.0359,0.0339,0.0289,0.0238,0.016,0.0139,0.0111,0.0059,0.0057,-0.0003,-0.0021,-0.0074,-0.0113,-0.0099,-0.0185,-0.0194,-0.0199,-0.0157,-0.0156,-0.0154,-0.0144,-0.0134,0,0,0,0,0,0.0452,0.041,0.0335,0.0298,0.0273,0.021,0.0181,0.0147,0.0091,0.0068,0.0015,-0.0041,-0.0094,-0.0127,-0.018,-0.0232,-0.0251,-0.0251,-0.0249,-0.0248,-0.0251,-0.0285,-0.0286,-0.0272,-0.0272,-0.0272,0,0,0.0463,0.041,0.0387,0.0307,0.0263,0.0218,0.0192,0.0147,0.0112,0.006,0.0003,-0.0038,-0.0105,-0.016,-0.0188,-0.0195,-0.026,-0.0249,-0.0247,-0.0252,-0.0286,-0.0287,-0.0288,-0.0272,-0.0272,-0.0272,0,0,0.0461,0.0418,0.0382,0.0338,0.0272,0.023,0.0221,0.0147,0.0118,0.0059,0.0019,-0.0025,-0.0114,-0.016,-0.0195,-0.0219,-0.0247,-0.0235,-0.0227,-0.0259,-0.026,-0.0261,-0.0271,-0.0274,-0.0238,-0.0238,-0.0238,0,0.0483,0.0416,0.0366,0.0322,0.0286,0.0239,0.02,0.0159,0.0078,0.0054,0.0047,-0.0067,-0.0115,-0.0183,-0.0189,-0.0216,-0.023,-0.0225,-0.0255,-0.0257,-0.0259,-0.027,-0.0273,-0.0236,-0.0236,-0.0236,-0.0236,0,0.0445,0.0399,0.0377,0.0302,0.0264,0.0223,0.0163,0.013,0.0099,0.0057,-0.0005,-0.0064,-0.0131,-0.015,-0.0181,-0.0224,-0.0226,-0.0243,-0.0254,-0.0258,-0.0269,-0.0273,-0.0233,-0.0234,-0.0234,-0.0235,0,0,0.0474,0.037,0.0363,0.0327,0.025,0.0212,0.0166,0.0102,0.0074,0.0019,-0.0022,-0.0098,-0.0115,-0.0155,-0.0192,-0.022,-0.0237,-0.0234,-0.0237,-0.0234,-0.0291,-0.0278,-0.0282,-0.0257,-0.0258,-0.0259,-0.0286,0,0.0461,0.0381,0.0332,0.027,0.0225,0.0178,0.0137,0.0084,0.0042,-0.0005,-0.0052,-0.0105,-0.0122,-0.0147,-0.0177,-0.0228,-0.025,-0.0227,-0.0298,-0.03,-0.028,-0.0287,-0.0273,-0.0296,-0.0291,-0.0292,-0.0292,0,0.0435,0.0382,0.0317,0.0242,0.0221,0.0186,0.0122,0.0079,0.0015,-0.0013,-0.0059,-0.0097,-0.015,-0.0157,-0.0233,-0.0217,-0.0249,-0.028,-0.0282,-0.029,-0.0296,-0.0297,-0.0305,-0.0308,-0.0299,-0.0298,-0.0298,0,0.0461,0.0373,0.0322,0.0293,0.0205,0.0181,0.0142,0.0079,0.0043,-0.0014,-0.0039,-0.0102,-0.0137,-0.0186,-0.0242,-0.0241,-0.0313,-0.0324,-0.034,-0.0339,-0.0353,-0.0351,-0.0366,-0.0373,-0.0373,-0.0373,-0.0373,0,0.0451,0.0412,0.0332,0.0301,0.0254,0.0198,0.0152,0.011,0.0053,0.001,-0.0036,-0.0076,-0.0146,-0.0196,-0.024,-0.0298,-0.0313,-0.034,-0.0351,-0.0336,-0.0332,-0.0358,-0.0358,-0.0374,-0.0373,-0.0373,-0.0373,0,0.0473,0.0418,0.0359,0.028,0.0259,0.0228,0.0159,0.0124,0.0079,0.0025,0.0009,-0.0063,-0.0124,-0.0184,-0.0267,-0.0297,-0.0355,-0.0369,-0.0332,-0.0339,-0.0352,-0.0351,-0.0384,-0.0393,-0.0392,-0.0392,-0.0392,0,0.047,0.0439,0.0357,0.0326,0.0289,0.0239,0.0201,0.0143,0.0105,0.0029,0.0003,-0.0062,-0.0116,-0.0213,-0.0274,-0.0339,-0.0356,-0.0363,-0.0366,-0.035,-0.0358,-0.0355,-0.036,-0.0362,-0.0361,-0.0361,-0.0361,0,0.0471,0.0445,0.0394,0.0333,0.029,0.0239,0.0185,0.0161,0.0091,0.0051,-0.0011,-0.0054,-0.0139,-0.0203,-0.0275,-0.0319,-0.0353,-0.036,-0.0367,-0.0352,-0.033,-0.0344,-0.0329,-0.0359,-0.0359,-0.0359,-0.0359,-0.0359,0.0479,0.0449,0.0386,0.033,0.0283,0.0234,0.0197,0.0148,0.0095,0.0023,-0.001,-0.0073,-0.014,-0.024,-0.0283,-0.0336,-0.0345,-0.0355,-0.0358,-0.036,-0.0357,-0.0321,-0.035,-0.035,-0.035,-0.035,-0.035,0,0.0476,0.0433,0.0382,0.0309,0.0264,0.0238,0.0177,0.014,0.0085,0.0027,-0.0026,-0.01,-0.0164,-0.0231,-0.0299,-0.0329,-0.0346,-0.0345,-0.0344,-0.0354,-0.0345,-0.0332,-0.033,-0.033,-0.033,-0.033,-0.033,-0.033,0.047,0.0416,0.0382,0.0303,0.0259,0.0198,0.0165,0.0117,0.007,-0.0009,-0.0062,-0.0104,-0.0168,-0.0241,-0.0302,-0.0321,-0.0345,-0.0339,-0.0362,-0.0352,-0.0354,-0.0355,-0.0343,-0.0343,-0.0343,-0.0366,-0.0367,-0.0367]}]]